OBJECT AE, 64556

Orbit data source: Space-Track

You're viewing an Uncataloged Satellite

Recently launched and/or uncataloged satellites may have evolving metadata. Metadata may include but not limited to: Owner, Maufacturer, Bus, Motor, and Mission.

OBJECT AE, 64556 is a satellite in SSO that was launched on Mon, 23 Jun 2025 UTC via an FALCON 9 launch vehicle from the Air Force Western Test Range (AFWTR). Unknown objects in Earth's orbit typically refer to objects detected orbiting the Earth but have not yet been identified or cataloged. These objects could be anything from previously untracked satellites, spent rocket stages, debris from satellite collisions, or even natural meteoroids temporarily captured by Earth's gravity.

Loading next visibility...
Identifier
64556, 2025-135AE
Orbit
SSO
Country
Flag of TBDTBD
Related business
None
Manufacturer
Unknown
Mission
Operational Commercial Imaging
Bus & Motor
Unknown
Mass
Unknown
Launch date (UTC)
2025-06-23 (9 months ago)
Launch vehicle
FALCON 9
Launch site
Air Force Western Test Range (AFWTR)
Object type
Unknown
Shape & HBR
Box, 0.1 m
Radar Cross Section
0.080 m², Small (<0.1 m²)

Expand to show TLE details & history
Last TLE update: 20 hours ago

TLE from 20 hours ago
0 OBJECT AE
1 64556U 25135AE  26094.24646721  .00017538  00000-0  71295-3 0  9996
2 64556  97.4655 211.0103 0001058  14.5590 345.5677 15.24609504 43673
Epoch: 2026-04-04T05:54Z
TLE epoch observation values (Epoch: 2026-04-04T05:54:54.766Z)
Latitude
-0.00013°
Longitude
-70.28687°
Altitude
494.349 km
Speed
7.618 km/s
True Right ascension
14h 04m 02s
True Declination
0° 00' 00"
Sunlit
Object was in full shadow at epoch
Visualization orbit readout
Latitude
Unknown
Longitude
Unknown
Altitude
Unknown
Speed
Unknown
Apparent Right ascension
Unknown
Apparent Declination
Unknown
Sunlit
N/A
Visualization observer readout
Local Sidereal Time
07:20:54
Azimuth
Unknown
Elevation
Unknown
Doppler factor
Unknown
Orbital elements
Apogee altitude
489.647 km
Perigee altitude
488.194 km
Semi-major axis
6,867.058 km
Eccentricity
0.00011
Inclination
97.4655°
RAAN
211.0103°
Arg. of periapsis
14.559°
True anomaly
345.56468°
Mean anomaly
345.5677°
Eccentric anomaly
345.56619°
Mean motion
3.81406 °/min
Orbital period
94.39 mins
BSTAR
0.00071295
Loading maneuver chart data...
Computing Atmospheric mass density...
Loading historical data...
Loading historical data...
Loading historical data...
Loading historical data...
Loading historical data...
Loading historical data...
Loading historical data...

Documentation

Showing up to 5 results
|